Regional Weather Roundup
Issued by NWS New Orleans/Baton Rouge, LA

Home | Current Version | Previous Version | Graphics & Text | Print | Product List | Glossary On
Versions: 1 2 3 4 5 6 7 8 9 10 11 12 13 14 15 16 17 18 19 20 21 22 23 24 25 26 27 28 29 30 31 32 33 34 35 36 37 38 39 40 41 42 43 44 45 46 47 48 49 50
554
ASUS44 KLIX 201801
RWRLIX
NEW ORLEANS REGIONAL WEATHER ROUNDUP
NATIONAL WEATHER SERVICE NEW ORLEANS LA
100 PM CDT SUN APR 20 2014

NOTE: "FAIR" INDICATES FEW OR NO CLOUDS BELOW 12,000 FEET WITH NO
      SIGNIFICANT WEATHER AND/OR OBSTRUCTIONS TO VISIBILITY.
      SKY/WX - SKY CONDITION AND SIGNIFICANT WEATHER.
      TMP - AIR TEMPERATURE.     DP    - DEWPOINT TEMPERATURE.
      RH  - RELATIVE HUMIDITY.   PRES  - PRESSURE.
      HI  - HEAT INDEX.          WCI   - WIND CHILL INDEX.

*  THESE STATIONS ARE NOT NWS OR FAA STATIONS AND ARE NOT UNDER
   NWS QUALITY CONTROL.

LAZ038-040-048-061>063-065>067-069-201900-
SOUTHEAST LOUISIANA

CITY           SKY/WX    TMP DP  RH WIND       PRES   REMARKS
N.O. AUDUBON   NOT AVBL
N.O. INTL ARPT MOSUNNY   78  58  49 NE8       30.17F
6HR MIN TEMP:  63; 6HR MAX TEMP:  79;

N.O. LAKEFRONT SUNNY     73  60  63 N6        30.18F
6HR MIN TEMP:  64; 6HR MAX TEMP:  73;

N.O. DOWNTOWN*   N/A     77  54  44 CALM      30.18F
6HR MIN TEMP:  64; 6HR MAX TEMP:  79;

SLIDELL        SUNNY     80  51  36 NE8       30.15F
6HR MIN TEMP:  51; 6HR MAX TEMP:  80;

BATON ROUGE    SUNNY     81  48  31 CALM      30.16F
6HR MIN TEMP:  54; 6HR MAX TEMP:  82;

BOOTHVILLE     SUNNY     70  60  70 NE7       30.19F
6HR MIN TEMP:  61; 6HR MAX TEMP:  70;

BELLE CHASSE   MOSUNNY   77  58  51 VRB5      30.16F
BOGALUSA*        N/A     80  48  31 E8        30.18F
6HR MIN TEMP:  51; 6HR MAX TEMP:  80;

GALLIANO*      NOT AVBL
NEW ROADS*     NOT AVBL
GONZALES*        N/A     80  53  39 CALM      30.16F
6HR MIN TEMP:  54; 6HR MAX TEMP:  80;

HAMMOND*       NOT AVBL
HOUMA*         NOT AVBL
PORT FOURCHON* CLEAR     72  61  68 E10       30.19F

$$

MSZ070-080>082-201900-
SOUTHERN MISSISSIPPI

CITY           SKY/WX    TMP DP  RH WIND       PRES   REMARKS
MCCOMB         SUNNY     77  47  34 CALM      30.18F
6HR MIN TEMP:  50; 6HR MAX TEMP:  78;

GULFPORT       SUNNY     81  52  36 N9        30.15F
6HR MIN TEMP:  60; 6HR MAX TEMP:  81;

BILOXI         NOT AVBL
PASCAGOULA     SUNNY     77  54  44 NE9G18    30.16F
6HR MIN TEMP:  52; 6HR MAX TEMP:  77;

STENNIS ARPT*  SUNNY     79  48  34 N9        30.16F

$$

COASTAL OBSERVATIONS
LAKE AND NEARSHORE STATIONS

STATION/POSITION TIME  TEMP    WIND        PRES    WAVE
                       AIR SEA DIR/SP/G            HT/PER
                 (UTC) (F)     (DEG/KT/KT) (MB)    (FT/S)
PASCAGOULA       1700   69     170/  7/  9 1020.9
WAVELAND YACHT   1700   66 68  160/  8/  9 1020.8
GRAND ISLE       1700   71 68   90/  6/  9 1022.6
SOUTHWEST PASS   1700   75 58   80/  4/  6 1022.2
NEW CANAL        1700   69 67   30/  8/  9 1022.5
SHELL BEACH      1700   68 66   30/  5/  6 1022.0

OFFSHORE STATIONS

STATION/POSITION TIME  TEMP    WIND        PRES    WAVE
                       AIR SEA DIR/SP/G            HT/PER
                 (UTC) (F)     (DEG/KT/KT) (MB)    (FT/S)
64 S DAUPHIN ISL 1651   63 71   40/ 12/ 16 1021.9

$$




USA.gov is the U.S. government's official web portal to all federal, state and local government web resources and services.